Orbital Elements at Epoch 2459200.5 (2020-Dec-17.0) TDB
Reference: JPL 34 (heliocentric ecliptic J2000)
Element | Value | Uncertainty (1-sigma) | Units |
e | .09212911684709561 | 3.5118e-08 | |
a | 2.925114657508864 | 1.4577e-08 | au |
q | 2.655626427436078 | 1.0459e-07 | au |
i | 1.64154678169364 | 6.2116e-06 | deg |
node | 358.2933799970676 | 0.00011821 | deg |
peri | 56.09467990715938 | 0.00012268 | deg |
M | 30.78155218627537 | 3.1951e-05 | deg |
tp | 2459044.256923110206 (2020-Jul-13.75692311) | 0.00016222 | TDB |
period | 1827.312259626888 5.00 | 1.366e-05 3.74e-08 | d yr |
n | .1970106631219708 | 1.4727e-09 | deg/d |
Q | 3.194602887581651 | 1.592e-08 | au |
|
| | Orbit Determination Parameters
Additional Information
|